Location: Saint-Restitut
(44.3351°N, 4.7915°E)
Time: 07:32:36
(UTC+00:00)

MOS 1-B - Pass Details

Date: 03 February 2023
Orbit: 904 x 913 km, 99.4° (Epoch: 26 March)

Event Time Altitude Azimuth Distance (km) Brightness Sun altitude
Rises 18:12:39 0° 154° (SSE) 3,526 7.3 -14.6°
Reaches altitude 10° 18:15:03 10° 151° (SSE) 2,590 6.5 -15.0°
Maximum altitude 18:20:46 66° 71° (ENE) 995 4.3 -16.0°
Drops below altitude 10° 18:26:32 10° 351° (N) 2,612 6.8 -17.0°
Sets 18:28:58 0° 348° (NNW) 3,559 7.5 -17.5°
